Meath Environmental Platform

Observations for Trim Market St

Time AQI Temp °C Hum % Pres Pa CO μg/m³ H₂S μg/m³ NO μg/m³ NO₂ μg/m³ O₃ μg/m³ SO₂ μg/m³ PM1 μg/m³ PM2.5 μg/m³ PM10 μg/m³
Tuesday 11 August 2026
09:31 1 31.3 37 66,027 0 0 0.71 9.08 40.03 0 0 3.01 3.32
09:30 1 31.2 37 66,031 0 0 0.7 9.28 51.47 0 0.71 4.09 4.23
09:29 1 31.2 37 66,015 0 0 0.68 8.06 22.98 0 0 3.55 3.9
09:27 1 31.1 38 66,019 0 0 0.64 8.9 38.08 0 0 2.98 3.28
09:26 1 31 38 66,027 0 0 0.64 9.25 49.63 0 0 2.98 3.27
09:20 1 30.6 39 65,941 0 0 0.66 7.94 25.79 0 0 2.94 3.23
09:17 1 30.4 39 65,898 0 0 0.71 8.55 23.19 0 0 2.92 3.21
09:11 1 30.2 40 65,837 0.07 0 0.71 8.52 20.86 0 0 2.89 4.3
09:09 1 30.1 40 65,776 0.07 0 0.71 8.89 12.49 0 1.43 4.44 4.89
09:07 1 29.8 41 65,672 0.08 0 0.77 8.67 23.65 0 0.71 3.89 4.28
09:05 1 29.6 42 65,594 0.13 0 0.8 9.02 8.24 0 0 2.82 3.1
09:04 1 29.5 42 65,538 0.24 0 0.8 8.64 12.19 0 1.43 3.86 4.24
09:03 1 29.3 42 65,527 0.12 0 0.84 9.08 9.47 0 0 3.32 3.65
09:02 1 29.2 42 65,447 0.2 0 0.84 8.35 0 0 0 2.77 3.05
09:01 1 29.1 43 65,408 0.13 0 0.83 9.03 25.58 0 0 2.76 3.03
09:00 1 29 43 65,388 0.12 0 0.84 8.64 17.06 0 0 2.25 2.47
08:58 1 28.8 43 65,329 0.13 0 0.87 9.07 16.53 0 0.71 2.75 3.03
08:56 1 28.6 44 65,285 0.19 0 0.92 9.2 0 0 0.71 3.26 3.58
08:55 1 28.6 44 65,232 0.17 0 0.92 9.18 0 0 0.71 3.24 3.56
08:52 1 28.3 45 64,890 0.24 0 0.92 9.21 0 0 0 2.68 2.95